Location: Arleux
(50.3632°N, 2.8721°E)
Time: 20:38:43
(UTC+00:00)

USA 81 - Pass Details

Date: 15 December 2019
Orbit: 785 x 788 km, 85.0° (Epoch: 06 January)

Event Time Altitude Azimuth Distance (km) Brightness Sun altitude
Rises 06:38:37 0° 348° (NNW) 3,290 6.9 -9.5°
Reaches altitude 10° 06:41:04 10° 342° (NNW) 2,357 6.1 -9.1°
Maximum altitude 06:46:01 42° 273° (W) 1,117 4.5 -8.4°
Drops below altitude 10° 06:50:56 10° 204° (SSW) 2,342 6.6 -7.7°
Sets 06:53:22 0° 197° (SSW) 3,266 7.4 -7.3°
